Time,TemperatureF,DewpointF,PressureIn,WindDirection,WindDirectionDegrees,WindSpeedMPH,WindSpeedGustMPH,Humidity,HourlyPrecipIn,Conditions,Clouds,dailyrainin,SoftwareType,DateUTC
2013-01-03 00:11:00,16.1,10.0,30.18,SW,232,5.0,9.0,78,0.00,,,0.00,weatherlink.com 1.10,2013-01-03 06:11:00,
2013-01-03 00:26:00,16.6,11.0,30.18,WSW,237,6.0,9.0,78,0.00,,,0.00,weatherlink.com 1.10,2013-01-03 06:26:00,
2013-01-03 00:41:00,17.0,11.0,30.17,SW,234,6.0,8.0,78,0.00,,,0.00,weatherlink.com 1.10,2013-01-03 06:41:00,
2013-01-03 00:56:00,17.0,11.0,30.17,SW,230,5.0,8.0,78,0.00,,,0.00,weatherlink.com 1.10,2013-01-03 06:56:00,
2013-01-03 01:11:00,17.2,12.0,30.17,WSW,237,3.0,7.0,79,0.00,,,0.00,weatherlink.com 1.10,2013-01-03 07:11:00,
2013-01-03 01:26:00,17.9,12.0,30.17,SW,229,5.0,8.0,79,0.00,,,0.00,weatherlink.com 1.10,2013-01-03 07:26:00,
2013-01-03 01:43:00,18.4,13.0,30.18,SW,223,5.0,7.0,79,0.00,,,0.00,weatherlink.com 1.10,2013-01-03 07:43:00,
2013-01-03 01:56:00,18.9,13.0,30.18,SW,225,5.0,7.0,79,0.00,,,0.00,weatherlink.com 1.10,2013-01-03 07:56:00,
2013-01-03 02:11:00,19.3,14.0,30.18,SW,220,7.0,9.0,79,0.00,,,0.00,weatherlink.com 1.10,2013-01-03 08:11:00,
2013-01-03 02:27:00,19.7,14.0,30.18,SW,234,5.0,8.0,79,0.00,,,0.00,weatherlink.com 1.10,2013-01-03 08:27:00,
2013-01-03 02:42:00,20.7,15.0,30.18,WSW,244,8.0,10.0,78,0.00,,,0.00,weatherlink.com 1.10,2013-01-03 08:42:00,
2013-01-03 02:57:00,21.5,15.0,30.17,WSW,245,9.0,14.0,77,0.00,,,0.00,weatherlink.com 1.10,2013-01-03 08:57:00,
2013-01-03 03:12:00,21.5,15.0,30.17,WSW,251,9.0,15.0,77,0.00,,,0.00,weatherlink.com 1.10,2013-01-03 09:12:00,
2013-01-03 03:27:00,21.4,16.0,30.17,WSW,246,7.0,11.0,78,0.00,,,0.00,weatherlink.com 1.10,2013-01-03 09:27:00,
2013-01-03 03:57:00,21.7,16.0,30.17,WSW,252,8.0,10.0,80,0.00,,,0.00,weatherlink.com 1.10,2013-01-03 09:57:00,
2013-01-03 04:12:00,21.6,16.0,30.17,SW,234,5.0,9.0,80,0.00,,,0.00,weatherlink.com 1.10,2013-01-03 10:12:00,
2013-01-03 04:27:00,21.8,17.0,30.17,SW,236,5.0,10.0,80,0.00,,,0.00,weatherlink.com 1.10,2013-01-03 10:27:00,
2013-01-03 07:12:00,24.1,20.0,30.18,West,259,5.0,10.0,84,0.00,,,0.00,weatherlink.com 1.10,2013-01-03 13:12:00,
2013-01-03 07:27:00,24.1,20.0,30.18,WSW,252,4.0,10.0,85,0.00,,,0.00,weatherlink.com 1.10,2013-01-03 13:27:00,
2013-01-03 07:42:00,24.2,20.0,30.18,WSW,250,7.0,9.0,85,0.00,,,0.00,weatherlink.com 1.10,2013-01-03 13:42:00,
2013-01-03 07:57:00,24.5,21.0,30.19,WSW,250,6.0,9.0,85,0.00,,,0.00,weatherlink.com 1.10,2013-01-03 13:57:00,
2013-01-03 08:12:00,24.8,21.0,30.19,WSW,258,6.0,9.0,86,0.00,,,0.00,weatherlink.com 1.10,2013-01-03 14:12:00,
2013-01-03 08:27:00,25.1,22.0,30.19,West,260,4.0,8.0,86,0.00,,,0.00,weatherlink.com 1.10,2013-01-03 14:27:00,
2013-01-03 08:42:00,25.6,22.0,30.20,WSW,258,4.0,9.0,86,0.00,,,0.00,weatherlink.com 1.10,2013-01-03 14:42:00,
2013-01-03 08:57:00,26.5,23.0,30.20,WSW,248,7.0,9.0,87,0.00,,,0.00,weatherlink.com 1.10,2013-01-03 14:57:00,
2013-01-03 09:12:00,27.0,23.0,30.20,SW,227,5.0,7.0,85,0.00,,,0.00,weatherlink.com 1.10,2013-01-03 15:12:00,
2013-01-03 09:27:00,28.1,24.0,30.21,West,259,11.0,12.0,85,0.00,,,0.00,weatherlink.com 1.10,2013-01-03 15:27:00,
2013-01-03 09:42:00,28.9,25.0,30.22,WSW,257,7.0,12.0,84,0.00,,,0.00,weatherlink.com 1.10,2013-01-03 15:42:00,
2013-01-03 09:57:00,29.5,25.0,30.23,West,269,10.0,13.0,84,0.00,,,0.00,weatherlink.com 1.10,2013-01-03 15:57:00,
2013-01-03 10:12:00,29.4,25.0,30.23,West,259,9.0,15.0,84,0.00,,,0.00,weatherlink.com 1.10,2013-01-03 16:12:00,
2013-01-03 10:27:00,29.5,25.0,30.23,WSW,252,7.0,13.0,84,0.00,,,0.00,weatherlink.com 1.10,2013-01-03 16:27:00,
2013-01-03 10:42:00,29.5,26.0,30.23,WSW,254,9.0,13.0,85,0.00,,,0.00,weatherlink.com 1.10,2013-01-03 16:42:00,
2013-01-03 10:58:00,29.9,26.0,30.23,West,277,5.0,14.0,85,0.00,,,0.00,weatherlink.com 1.10,2013-01-03 16:58:00,
2013-01-03 11:13:00,30.3,26.0,30.22,West,269,4.0,15.0,85,0.00,,,0.00,weatherlink.com 1.10,2013-01-03 17:13:00,
2013-01-03 11:28:00,30.5,26.0,30.22,West,271,10.0,10.0,84,0.00,,,0.00,weatherlink.com 1.10,2013-01-03 17:28:00,
2013-01-03 11:43:00,31.1,27.0,30.21,WSW,250,5.0,12.0,84,0.00,,,0.00,weatherlink.com 1.10,2013-01-03 17:43:00,
2013-01-03 11:58:00,32.0,26.0,30.20,West,261,4.0,10.0,77,0.00,,,0.00,weatherlink.com 1.10,2013-01-03 17:58:00,
2013-01-03 12:13:00,32.2,24.0,30.20,WSW,248,3.0,16.0,73,0.00,,,0.00,weatherlink.com 1.10,2013-01-03 18:13:00,
2013-01-03 12:28:00,32.0,25.0,30.20,WSW,255,1.0,10.0,75,0.00,,,0.00,weatherlink.com 1.10,2013-01-03 18:28:00,
2013-01-03 12:43:00,31.5,25.0,30.21,WSW,257,9.0,13.0,77,0.00,,,0.00,weatherlink.com 1.10,2013-01-03 18:43:00,
2013-01-03 12:58:00,31.2,25.0,30.20,West,269,5.0,12.0,79,0.00,,,0.00,weatherlink.com 1.10,2013-01-03 18:58:00,
2013-01-03 13:13:00,31.7,25.0,30.20,NW,311,7.0,12.0,77,0.00,,,0.00,weatherlink.com 1.10,2013-01-03 19:13:00,
2013-01-03 13:58:00,31.9,23.0,30.21,West,277,4.0,13.0,70,0.00,,,0.00,weatherlink.com 1.10,2013-01-03 19:58:00,
2013-01-03 14:13:00,31.7,23.0,30.21,NW,313,6.0,16.0,69,0.00,,,0.00,weatherlink.com 1.10,2013-01-03 20:13:00,
2013-01-03 14:28:00,31.5,23.0,30.22,West,271,8.0,12.0,70,0.00,,,0.00,weatherlink.com 1.10,2013-01-03 20:28:00,
2013-01-03 14:43:00,31.2,23.0,30.23,WSW,248,6.0,13.0,73,0.00,,,0.00,weatherlink.com 1.10,2013-01-03 20:43:00,
2013-01-03 14:58:00,31.1,23.0,30.23,NW,325,5.0,15.0,73,0.00,,,0.00,weatherlink.com 1.10,2013-01-03 20:58:00,
2013-01-03 15:13:00,31.1,24.0,30.23,WNW,300,6.0,13.0,74,0.00,,,0.00,weatherlink.com 1.10,2013-01-03 21:13:00,
2013-01-03 15:28:00,31.0,24.0,30.23,SW,219,2.0,10.0,75,0.00,,,0.00,weatherlink.com 1.10,2013-01-03 21:28:00,
2013-01-03 15:43:00,30.6,25.0,30.24,West,277,5.0,12.0,78,0.00,,,0.00,weatherlink.com 1.10,2013-01-03 21:43:00,
2013-01-03 15:58:00,30.5,25.0,30.24,SW,222,7.0,10.0,79,0.00,,,0.00,weatherlink.com 1.10,2013-01-03 21:58:00,
2013-01-03 16:13:00,30.3,24.0,30.24,WSW,257,4.0,11.0,77,0.00,,,0.00,weatherlink.com 1.10,2013-01-03 22:13:00,
2013-01-03 16:28:00,30.5,24.0,30.24,WSW,254,7.0,10.0,76,0.00,,,0.00,weatherlink.com 1.10,2013-01-03 22:28:00,
2013-01-03 16:43:00,30.3,23.0,30.24,WNW,284,6.0,12.0,75,0.00,,,0.00,weatherlink.com 1.10,2013-01-03 22:43:00,
2013-01-03 16:58:00,29.6,22.0,30.25,WNW,296,6.0,8.0,74,0.00,,,0.00,weatherlink.com 1.10,2013-01-03 22:58:00,
2013-01-03 17:13:00,28.7,21.0,30.26,West,281,2.0,11.0,72,0.00,,,0.00,weatherlink.com 1.10,2013-01-03 23:13:00,
2013-01-03 17:28:00,27.5,20.0,30.27,WNW,283,4.0,6.0,72,0.00,,,0.00,weatherlink.com 1.10,2013-01-03 23:28:00,
2013-01-03 17:43:00,26.2,19.0,30.27,West,268,2.0,8.0,74,0.00,,,0.00,weatherlink.com 1.10,2013-01-03 23:43:00,
2013-01-03 17:58:00,25.5,19.0,30.27,West,265,2.0,7.0,75,0.00,,,0.00,weatherlink.com 1.10,2013-01-03 23:58:00,
2013-01-03 18:13:00,25.6,18.0,30.28,NW,321,3.0,11.0,74,0.00,,,0.00,weatherlink.com 1.10,2013-01-04 00:13:00,
2013-01-03 18:28:00,24.6,18.0,30.28,WSW,253,2.0,7.0,75,0.00,,,0.00,weatherlink.com 1.10,2013-01-04 00:28:00,
2013-01-03 18:43:00,23.2,17.0,30.28,West,261,3.0,6.0,77,0.00,,,0.00,weatherlink.com 1.10,2013-01-04 00:43:00,
2013-01-03 18:58:00,23.3,18.0,30.29,West,264,1.0,7.0,79,0.00,,,0.00,weatherlink.com 1.10,2013-01-04 00:58:00,
2013-01-03 19:13:00,23.5,18.0,30.30,WNW,291,2.0,8.0,79,0.00,,,0.00,weatherlink.com 1.10,2013-01-04 01:13:00,
2013-01-03 19:28:00,24.1,18.0,30.30,West,270,2.0,9.0,77,0.00,,,0.00,weatherlink.com 1.10,2013-01-04 01:28:00,
2013-01-03 19:43:00,23.5,18.0,30.30,West,281,3.0,12.0,78,0.00,,,0.00,weatherlink.com 1.10,2013-01-04 01:43:00,
2013-01-03 19:58:00,22.4,17.0,30.30,West,273,3.0,8.0,79,0.00,,,0.00,weatherlink.com 1.10,2013-01-04 01:58:00,
2013-01-03 20:13:00,22.1,17.0,30.30,WSW,246,6.0,11.0,81,0.00,,,0.00,weatherlink.com 1.10,2013-01-04 02:13:00,
2013-01-03 20:28:00,22.9,18.0,30.30,West,267,7.0,11.0,80,0.00,,,0.00,weatherlink.com 1.10,2013-01-04 02:28:00,
2013-01-03 20:43:00,23.2,18.0,30.30,West,275,5.0,15.0,79,0.00,,,0.00,weatherlink.com 1.10,2013-01-04 02:43:00,
2013-01-03 20:58:00,23.5,18.0,30.30,WNW,298,8.0,14.0,79,0.00,,,0.00,weatherlink.com 1.10,2013-01-04 02:58:00,
2013-01-03 21:13:00,23.5,18.0,30.30,WSW,250,3.0,14.0,80,0.00,,,0.00,weatherlink.com 1.10,2013-01-04 03:13:00,
2013-01-03 21:28:00,23.3,18.0,30.30,WSW,251,3.0,9.0,80,0.00,,,0.00,weatherlink.com 1.10,2013-01-04 03:28:00,
2013-01-03 21:43:00,23.1,18.0,30.31,West,279,2.0,9.0,81,0.00,,,0.00,weatherlink.com 1.10,2013-01-04 03:43:00,
2013-01-03 21:58:00,22.8,18.0,30.31,WSW,248,4.0,9.0,81,0.00,,,0.00,weatherlink.com 1.10,2013-01-04 03:58:00,
2013-01-03 22:13:00,22.2,18.0,30.30,West,269,3.0,8.0,82,0.00,,,0.00,weatherlink.com 1.10,2013-01-04 04:13:00,
2013-01-03 22:28:00,21.5,17.0,30.30,West,267,3.0,6.0,83,0.00,,,0.00,weatherlink.com 1.10,2013-01-04 04:28:00,
2013-01-03 22:43:00,21.2,17.0,30.30,WSW,254,5.0,7.0,84,0.00,,,0.00,weatherlink.com 1.10,2013-01-04 04:43:00,
2013-01-03 22:58:00,21.1,17.0,30.30,WSW,257,4.0,9.0,84,0.00,,,0.00,weatherlink.com 1.10,2013-01-04 04:58:00,
2013-01-03 23:28:00,20.5,16.0,30.29,West,261,4.0,8.0,84,0.00,,,0.00,weatherlink.com 1.10,2013-01-04 05:28:00,
2013-01-03 23:43:00,20.0,16.0,30.29,West,265,3.0,7.0,84,0.00,,,0.00,weatherlink.com 1.10,2013-01-04 05:43:00,
2013-01-03 23:57:00,18.7,14.0,30.29,WSW,252,5.0,7.0,83,0.00,,,0.00,weatherlink.com 1.10,2013-01-04 05:57:00,